Location: *
(37.4917°N, 71.5558°E)
Time: 08:41:20
(UTC+00:00)

Cosmos 1461 - Pass Details

Date: 09 April 2020
Orbit: 507 x 660 km, 65.0° (Epoch: 03 June)

Event Time Altitude Azimuth Distance (km) Brightness Sun altitude
Rises 15:47:23 0° 324° (NW) 2,919 7.7 -23.6°
Reaches altitude 10° 15:49:41 10° 319° (NW) 2,028 6.7 -24.0°
Maximum altitude 15:54:08 49° 245° (WSW) 834 3.8 -24.7°
Enters shadow 15:54:53 45° 213° (SSW) 892 3.8 -24.9°
